Flag for United Kingdom Weather past 2 weeks in Edinburgh, Scotland, United Kingdom

Now
52 °F

Clear.


Feels Like: 52 °F
Forecast: 53 / 62 °F
Wind: 2 mph from Northeast

Location: Edinburgh Airport

Current Time: Aug 1, 2014 at 6:27:58 AM

Latest Report: Aug 1, 2014 at 5:50 AM


Visibility: 10 mi

Pressure: 29.68 "Hg

Humidity: 100%

Dew point: 52 °F

Location of EdinburghLocation

Historic Weather in Edinburgh — Graph

°F

Edinburgh temperature yesterday

Maximum temperature yesterday: 68 °F (at 4:20 PM)
Minimum temperature yesterday: 54 °F (at 2:50 AM)
Average temperature yesterday: 60 °F

Past Weeks' High & Low Weather Summary

 TemperatureHumidityPressure
High75 °F (Jul 22, 2:50 PM)100% (Jul 18, 1:50 AM)30.30 "Hg (Jul 18, 1:50 AM)
Low46 °F (Jul 28, 1:20 AM)50% (Jul 17, 4:50 PM)29.68 "Hg (Aug 1, 3:20 AM)
Average61 °F83%30.01 "Hg
* Reported Jul 17 4:20 AM — Aug 1 4:50 AM, Edinburgh, Weather by CustomWeather, © 2014

Note: Actual official high and low records may vary slightly from our data, if they occured in-between our weather recording intervals... More about our weather records

Advertising

Edinburgh weather history for previous 24 hours

 ConditionsComfort  
Time TempWeatherWind HumidityBarometerVisibility
4:50 AM
Aug 1
52 °FFog.No wind94%29.68 "HgN/A
4:20 AM52 °FClear.2 mph100%29.68 "Hg10 mi
3:50 AM55 °FClear.2 mph94%29.68 "Hg10 mi
3:20 AM55 °FCool.3 mph94%29.68 "HgN/A
2:50 AM55 °FClear.5 mph94%29.71 "Hg10 mi
2:20 AM57 °FClear.5 mph88%29.71 "Hg10 mi
1:50 AM57 °FPassing clouds.7 mph88%29.71 "HgN/A
1:20 AM55 °FPassing clouds.No wind94%29.71 "HgN/A
12:50 AM55 °FPassing clouds.2 mph94%29.71 "HgN/A
12:20 AM57 °FOvercast.No wind94%29.71 "HgN/A
11:50 PM
Jul 31
57 °FMostly cloudy.No wind94%29.71 "HgN/A
11:20 PM57 °FMostly cloudy.No wind94%29.71 "HgN/A
10:50 PM55 °FPartly cloudy.No wind94%29.71 "HgN/A
10:20 PM59 °FScattered clouds.2 mph88%29.71 "HgN/A
9:50 PM59 °FScattered clouds.6 mph88%29.74 "HgN/A
9:20 PM59 °FPassing clouds.5 mph88%29.74 "HgN/A
8:50 PM61 °FLight rain. Scattered clouds.7 mph77%29.74 "HgN/A
8:20 PM61 °FPassing clouds.5 mph83%29.74 "HgN/A
7:50 PM61 °FPassing clouds.8 mph83%29.74 "HgN/A
7:20 PM63 °FPassing clouds.10 mph73%29.74 "HgN/A
6:50 PM63 °FPassing clouds.16 mph73%29.74 "HgN/A
6:20 PM63 °FPassing clouds.14 mph68%29.74 "HgN/A
5:50 PM64 °FScattered clouds.13 mph64%29.74 "HgN/A
5:20 PM66 °FScattered clouds.16 mph60%29.74 "HgN/A
4:50 PM66 °FScattered clouds.15 mph60%29.74 "HgN/A
4:20 PM68 °FScattered clouds.14 mph56%29.74 "HgN/A
3:50 PM66 °FScattered clouds.14 mph60%29.74 "HgN/A
3:20 PM66 °FScattered clouds.15 mph64%29.77 "HgN/A
2:50 PM64 °FScattered clouds.15 mph68%29.77 "HgN/A
2:20 PM64 °FScattered clouds.9 mph73%29.77 "HgN/A
1:50 PM64 °FSprinkles. Passing clouds.9 mph73%29.77 "HgN/A
1:20 PM64 °FPassing clouds.9 mph78%29.77 "HgN/A
12:50 PM63 °FSprinkles. Scattered clouds.8 mph77%29.77 "HgN/A
12:20 PM61 °FScattered clouds.6 mph83%29.77 "HgN/A
11:50 AM59 °FScattered showers. Scattered clouds.6 mph88%29.80 "HgN/A
11:20 AM64 °FScattered showers. Partly sunny.7 mph73%29.80 "HgN/A
10:50 AM61 °FScattered showers. Broken clouds.13 mph77%29.80 "HgN/A
10:20 AM61 °FBroken clouds.8 mph77%29.80 "HgN/A
9:50 AM59 °FSleet. Scattered clouds.7 mph82%29.80 "HgN/A
9:20 AM61 °FPartly sunny.8 mph77%29.80 "HgN/A
8:50 AM57 °FSprinkles. Broken clouds.6 mph88%29.80 "HgN/A
8:20 AM59 °FBroken clouds.8 mph82%29.80 "HgN/A
7:50 AM59 °FBroken clouds.7 mph82%29.80 "HgN/A
7:20 AM59 °FBroken clouds.9 mph82%29.80 "HgN/A
6:50 AM57 °FPartly sunny.5 mph88%29.80 "HgN/A
6:20 AM55 °FPartly sunny.3 mph94%29.80 "HgN/A
Weather by CustomWeather, © 2014

See weather overviewHow to use our weather pages